| time (UTC) | temp C | wind direction | speed KPH | gust KPH | rain 1hr cm | rain 24hr cm | rain mn cm | humidity % | barometer mb |
| 20260507080055 | -17 | 77 | 0.0 | 1.6 | 0.00 | 0.00 | 0.00 | 1008.1 | |
| 20260507074550 | -17 | 0 | 0.0 | 3.2 | 0.00 | 0.00 | 0.00 | 1008.2 | |
| 20260507073051 | -17 | 0 | 0.0 | 1.6 | 0.00 | 0.00 | 0.00 | 1008.6 | |
| 20260507071546 | -17 | 0 | 0.0 | 1.6 | 0.00 | 0.00 | 0.00 | 1008.8 | |
| 20260507070058 | -17 | 0 | 0.0 | 1.6 | 0.00 | 0.00 | 0.00 | 1008.8 | |
| 20260507064548 | -17 | 0 | 0.0 | 1.6 | 0.00 | 0.00 | 0.00 | 1008.9 | |
| 20260507063054 | -17 | 76 | 0.0 | 4.8 | 0.00 | 0.00 | 0.00 | 1009.1 | |
| 20260507061544 | -17 | 76 | 0.0 | 4.8 | 0.00 | 0.00 | 0.00 | 1009.2 | |
| 20260507054552 | -17 | 81 | 1.6 | 3.2 | 0.00 | 0.00 | 0.00 | 1009.7 | |
| 20260507053051 | -17 | 91 | 1.6 | 6.4 | 0.00 | 0.00 | 0.00 | 1009.9 | |
| 20260507051545 | -17 | 58 | 1.6 | 4.8 | 0.00 | 0.00 | 0.00 | 1010.0 | |
| 20260507050045 | -17 | 103 | 1.6 | 6.4 | 0.00 | 0.00 | 0.00 | 1010.2 | |
| 20260507044548 | -17 | 84 | 1.6 | 4.8 | 0.00 | 0.00 | 0.00 | 1010.2 | |
| 20260507043047 | -17 | 109 | 1.6 | 6.4 | 0.00 | 0.00 | 0.00 | 1010.2 | |
| 20260507041547 | -17 | 115 | 1.6 | 6.4 | 0.00 | 0.00 | 0.00 | 1010.3 | |
| 20260507040045 | -17 | 86 | 1.6 | 4.8 | 0.00 | 0.00 | 0.00 | 1010.2 | |
| 20260507034554 | -17 | 111 | 3.2 | 6.4 | 0.00 | 0.00 | 0.00 | 1010.1 | |
| 20260507033049 | -17 | 131 | 3.2 | 9.7 | 0.00 | 0.00 | 0.00 | 1009.9 | |
| 20260507031547 | -17 | 184 | 3.2 | 12.9 | 0.00 | 0.00 | 0.00 | 1009.9 | |
| 20260507030047 | -17 | 124 | 4.8 | 11.3 | 0.00 | 0.00 | 0.00 | 1009.8 | |
| 20260507024559 | -17 | 172 | 4.8 | 9.7 | 0.00 | 0.00 | 0.00 | 1009.6 | |
| 20260507023050 | -17 | 162 | 4.8 | 11.3 | 0.00 | 0.00 | 0.00 | 1009.6 | |
| 20260507021552 | -17 | 176 | 4.8 | 8.0 | 0.00 | 0.00 | 0.00 | 1009.5 | |
| 20260507020052 | -17 | 121 | 4.8 | 12.9 | 0.00 | 0.00 | 0.00 | 1009.3 | |
| 20260507014553 | -17 | 153 | 4.8 | 14.5 | 0.00 | 0.00 | 0.00 | 1009.1 | |
| 20260507013052 | -17 | 157 | 1.6 | 9.7 | 0.00 | 0.00 | 0.00 | 1009.0 | |
| 20260507011551 | -17 | 120 | 4.8 | 11.3 | 0.00 | 0.00 | 0.00 | 1008.8 | |
| 20260507010105 | -17 | 124 | 8.0 | 14.5 | 0.00 | 0.00 | 0.00 | 1008.5 | |
| 20260507004549 | -17 | 221 | 4.8 | 14.5 | 0.00 | 0.00 | 0.00 | 1008.2 | |
| 20260507003052 | -17 | 143 | 3.2 | 16.1 | 0.00 | 0.00 | 0.00 | 1007.9 | |
| 20260507001555 | -17 | 236 | 4.8 | 16.1 | 0.00 | 0.00 | 0.00 | 1007.8 | |
| 20260507000051 | -17 | 211 | 4.8 | 14.5 | 0.00 | 0.00 | 0.00 | 1007.6 | |
| 20260506234545 | -17 | 188 | 8.0 | 14.5 | 0.00 | 0.00 | 0.00 | 1007.3 | |
| 20260506233057 | -17 | 250 | 4.8 | 14.5 | 0.00 | 0.00 | 0.00 | 1007.2 | |
| 20260506231544 | -17 | 266 | 6.4 | 17.7 | 0.00 | 0.00 | 0.00 | 1007.1 | |
| 20260506230052 | -17 | 140 | 8.0 | 22.5 | 0.00 | 0.00 | 0.00 | 1007.0 | |
| 20260506224553 | -17 | 248 | 6.4 | 17.7 | 0.00 | 0.00 | 0.00 | 1006.9 | |
| 20260506223045 | -17 | 254 | 8.0 | 17.7 | 0.00 | 0.00 | 0.00 | 1006.8 | |
| 20260506221548 | -17 | 240 | 8.0 | 19.3 | 0.00 | 0.00 | 0.00 | 1006.8 | |
| 20260506220050 | -17 | 195 | 6.4 | 19.3 | 0.00 | 0.00 | 0.00 | 1006.7 | |
| 20260506214547 | -17 | 229 | 6.4 | 19.3 | 0.00 | 0.00 | 0.00 | 1006.7 | |
| 20260506213049 | -17 | 171 | 8.0 | 16.1 | 0.00 | 0.00 | 0.00 | 1006.6 | |
| 20260506211553 | -17 | 283 | 6.4 | 19.3 | 0.00 | 0.00 | 0.00 | 1006.7 | |
| 20260506210048 | -17 | 239 | 6.4 | 12.9 | 0.00 | 0.00 | 0.00 | 1006.7 | |
| 20260506204546 | -17 | 226 | 8.0 | 14.5 | 0.00 | 0.00 | 0.00 | 1006.8 | |
| 20260506203051 | -17 | 219 | 4.8 | 16.1 | 0.00 | 0.00 | 0.00 | 1007.0 | |
| 20260506201549 | -17 | 145 | 8.0 | 16.1 | 0.00 | 0.00 | 0.00 | 1007.1 | |
| 20260506200044 | -17 | 164 | 8.0 | 20.9 | 0.00 | 0.00 | 0.00 | 1007.2 | |
| 20260506194550 | -17 | 266 | 6.4 | 25.7 | 0.00 | 0.00 | 0.00 | 1007.5 | |
| 20260506193052 | -17 | 255 | 12.9 | 24.1 | 0.00 | 0.00 | 0.00 | 1007.5 | |
| 20260506191548 | -17 | 268 | 6.4 | 16.1 | 0.00 | 0.00 | 0.00 | 1007.8 | |
| 20260506190045 | -17 | 259 | 11.3 | 19.3 | 0.00 | 0.00 | 0.00 | 1008.1 | |
| 20260506184550 | -17 | 219 | 6.4 | 14.5 | 0.00 | 0.00 | 0.00 | 1008.5 | |
| 20260506183047 | -17 | 261 | 8.0 | 19.3 | 0.00 | 0.00 | 0.00 | 1008.8 | |
| 20260506181545 | -17 | 133 | 4.8 | 12.9 | 0.00 | 0.00 | 0.00 | 1009.0 | |
| 20260506180047 | -17 | 282 | 3.2 | 11.3 | 0.00 | 0.00 | 0.00 | 1009.2 | |
| 20260506174557 | -17 | 318 | 3.2 | 6.4 | 0.00 | 0.00 | 0.00 | 1009.3 | |
| 20260506173048 | -17 | 257 | 3.2 | 16.1 | 0.00 | 0.00 | 0.00 | 1009.5 | |
| 20260506171552 | -17 | 276 | 4.8 | 11.3 | 0.00 | 0.00 | 0.00 | 1009.7 | |
| 20260506170047 | -17 | 314 | 6.4 | 12.9 | 0.00 | 0.00 | 0.00 | 1010.0 | |
| 20260506164552 | -17 | 276 | 4.8 | 11.3 | 0.00 | 0.00 | 0.00 | 1010.1 | |
| 20260506163052 | -17 | 329 | 4.8 | 9.7 | 0.00 | 0.00 | 0.00 | 1010.2 | |
| 20260506161547 | -17 | 172 | 4.8 | 9.7 | 0.00 | 0.00 | 0.00 | 1010.3 | |
| 20260506160049 | -17 | 275 | 3.2 | 11.3 | 0.00 | 0.00 | 0.00 | 1010.5 | |
| 20260506154551 | -17 | 260 | 3.2 | 9.7 | 0.00 | 0.00 | 0.00 | 1010.6 | |
| 20260506153052 | -17 | 268 | 3.2 | 9.7 | 0.00 | 0.00 | 0.00 | 1010.7 | |
| 20260506151547 | -17 | 261 | 4.8 | 8.0 | 0.00 | 0.00 | 0.00 | 1010.7 | |
| 20260506150059 | -17 | 294 | 1.6 | 6.4 | 0.00 | 0.00 | 0.00 | 1010.8 | |
| 20260506144609 | -17 | 184 | 1.6 | 6.4 | 0.00 | 0.00 | 0.00 | 1010.8 | |
| 20260506143051 | -17 | 257 | 1.6 | 8.0 | 0.00 | 0.00 | 0.00 | 1010.8 | |
| 20260506141546 | -17 | 0 | 0.0 | 4.8 | 0.00 | 0.00 | 0.00 | 1010.8 | |
| 20260506140104 | -17 | 262 | 1.6 | 4.8 | 0.00 | 0.00 | 0.00 | 1010.8 | |
| 20260506134546 | -17 | 252 | 1.6 | 3.2 | 0.00 | 0.00 | 0.00 | 1010.7 | |
| 20260506133102 | -17 | 163 | 0.0 | 8.0 | 0.00 | 0.00 | 0.00 | 1010.6 | |
| 20260506131547 | -17 | 229 | 0.0 | 3.2 | 0.00 | 0.00 | 0.00 | 1010.6 | |
| 20260506130124 | -17 | 0 | 1.6 | 3.2 | 0.00 | 0.00 | 0.00 | 1010.4 | |
| 20260506124552 | -17 | 0 | 0.0 | 1.6 | 0.00 | 0.00 | 0.00 | 1010.3 | |
| 20260506123048 | -17 | 82 | 0.0 | 3.2 | 0.00 | 0.00 | 0.00 | 1010.3 | |
| 20260506121553 | -17 | 60 | 0.0 | 1.6 | 0.00 | 0.00 | 0.00 | 1010.2 | |
| 20260506120047 | -17 | 60 | 0.0 | 4.8 | 0.00 | 0.00 | 0.00 | 1010.2 | |
| 20260506114547 | -17 | 53 | 1.6 | 4.8 | 0.00 | 0.00 | 0.00 | 1010.1 | |
| 20260506113050 | -17 | 0 | 0.0 | 3.2 | 0.00 | 0.00 | 0.00 | 1009.8 | |
| 20260506111547 | -17 | 72 | 0.0 | 1.6 | 0.00 | 0.00 | 0.00 | 1009.6 | |
| 20260506110053 | -17 | 90 | 0.0 | 3.2 | 0.00 | 0.00 | 0.00 | 1009.4 | |
| 20260506104554 | -17 | 109 | 0.0 | 1.6 | 0.00 | 0.00 | 0.00 | 1009.3 | |
| 20260506103044 | -17 | 0 | 0.0 | 1.6 | 0.00 | 0.00 | 0.00 | 1009.0 | |
| 20260506101550 | -17 | 79 | 0.0 | 3.2 | 0.00 | 0.00 | 0.00 | 1009.0 | |
| 20260506100104 | -17 | 82 | 0.0 | 1.6 | 0.00 | 0.00 | 0.00 | 1009.0 | |
| 20260506094550 | -17 | 86 | 1.6 | 4.8 | 0.00 | 0.00 | 0.00 | 1008.9 | |
| 20260506093047 | -17 | 94 | 0.0 | 4.8 | 0.00 | 0.00 | 0.00 | 1008.8 | |
| 20260506091551 | -17 | 84 | 0.0 | 1.6 | 0.00 | 0.00 | 0.00 | 1008.9 | |
| 20260506090044 | -17 | 0 | 0.0 | 3.2 | 0.00 | 0.00 | 0.00 | 1008.9 | |
| 20260506084541 | -17 | 83 | 1.6 | 3.2 | 0.00 | 0.00 | 0.00 | 1008.9 | |
| 20260506083055 | -17 | 79 | 1.6 | 3.2 | 0.00 | 0.00 | 0.00 | 1008.9 | |
| 20260506081601 | -17 | 78 | 1.6 | 4.8 | 0.00 | 0.00 | 0.00 | 1009.0 |